This is the latest recevied weather packets stored in our database for station/object SR9NLI. If no packets are shown the sender has not sent any weather packets the latest 10 day(s).
| Time | Temp. | Humidity | Pressure | Rain* | Wind** | Luminosity | Snow |
|---|---|---|---|---|---|---|---|
| 1778024474 | 16.67° C | 100% | 948.5 hPa | - | - | - | - |
| 1778024413 | 16.67° C | 100% | 948.4 hPa | - | - | - | - |
| 1778024350 | 16.67° C | 100% | 948.5 hPa | - | - | - | - |
| 1778024228 | 16.11° C | 100% | 948.5 hPa | - | - | - | - |
| 1778024105 | 15.56° C | 100% | 948.5 hPa | - | - | - | - |
| 1778024044 | 15.56° C | 100% | 948.6 hPa | - | - | - | - |
| 1778023982 | 15.56° C | 100% | 948.5 hPa | - | - | - | - |
| 1778023859 | 15° C | 100% | 948.6 hPa | - | - | - | - |
| 1778023736 | 15° C | 100% | 948.5 hPa | - | - | - | - |
| 1778023675 | 15.56° C | 100% | 948.6 hPa | - | - | - | - |
| 1778023613 | 15.56° C | 100% | 948.6 hPa | - | - | - | - |
| 1778023489 | 16.11° C | 100% | 948.7 hPa | - | - | - | - |
| 1778023366 | 16.11° C | 100% | 948.6 hPa | - | - | - | - |
| 1778023306 | 15.56° C | 100% | 948.5 hPa | - | - | - | - |
| 1778023243 | 15.56° C | 100% | 948.8 hPa | - | - | - | - |
| 1778023119 | 15.56° C | 100% | 948.6 hPa | - | - | - | - |
| 1778022996 | 14.44° C | 100% | 948.6 hPa | - | - | - | - |
| 1778022935 | 13.89° C | 100% | 948.7 hPa | - | - | - | - |
| 1778022873 | 13.89° C | 100% | 948.7 hPa | - | - | - | - |
| 1778022749 | 13.89° C | 100% | 948.5 hPa | - | - | - | - |
| 1778022626 | 13.89° C | 100% | 948.6 hPa | - | - | - | - |
| 1778022566 | 13.89° C | 100% | 948.7 hPa | - | - | - | - |
| 1778022503 | 14.44° C | 100% | 948.6 hPa | - | - | - | - |
| 1778022380 | 14.44° C | 100% | 948.5 hPa | - | - | - | - |
| 1778022257 | 15° C | 100% | 948.5 hPa | - | - | - | - |
* Rain since midnight (hover to see other rain measurements)
** Current wind speed in m/s (hover to see current wind gust speed)